HS5FXK-3 Weather Reports


time (UTC)temp
C
wind
direction
speed
KPH
gust
KPH
rain 1hr
cm
rain 24hr
cm
rain mn
cm
humidity
%
barometer
mb
20260509053736 30 0 0.0 0.0 0.00 0.00 0.00 91 980.0
20260509052947 30 0 0.0 0.0 0.00 0.00 0.00 87 981.0
20260509051354 32 0 0.0 0.0 0.00 0.00 0.00 68 981.0
20260509045842 33 0 0.0 0.0 0.00 0.00 0.00 64 981.0
20260509044330 33 0 0.0 0.0 0.00 0.00 0.00 68 981.0
20260509042817 33 0 0.0 0.0 0.00 0.00 0.00 63 981.0
20260509041305 33 0 0.0 0.0 0.00 0.00 0.00 67 982.0
20260509040011 32 0 0.0 0.0 0.00 0.00 0.00 74 982.0
20260509035122 32 0 0.0 0.0 0.00 0.00 0.00 74 982.0
20260509033610 32 0 0.0 0.0 0.00 0.00 0.00 76 982.0
20260509032057 31 0 0.0 0.0 0.00 0.00 0.00 82 982.0
20260509030827 30 0 0.0 0.0 0.00 0.00 0.00 86 983.0
20260509025315 30 0 0.0 0.0 0.00 0.00 0.00 92 983.0
20260509023650 29 0 0.0 0.0 0.00 0.00 0.00 95 983.0
20260509022138 29 0 0.0 0.0 0.00 0.00 0.00 99 983.0
20260509020625 28 0 0.0 0.0 0.00 0.00 0.00 99 983.0
20260509015113 29 0 0.0 0.0 0.00 0.00 0.00 99 983.0
20260509013601 28 0 0.0 0.0 0.00 0.00 0.00 99 982.0
20260509012049 28 0 0.0 0.0 0.00 0.00 0.00 99 982.0
20260509010537 28 0 0.0 0.0 0.00 0.00 0.00 99 982.0
20260509005024 28 0 0.0 0.0 0.00 0.00 0.00 99 982.0
20260509003512 27 0 0.0 0.0 0.00 0.00 0.00 99 982.0
20260509002000 27 0 0.0 0.0 0.00 0.00 0.00 99 982.0
20260509000448 27 0 0.0 0.0 0.00 0.00 0.00 99 982.0
20260508234935 27 0 0.0 0.0 0.00 0.00 0.00 99 982.0
20260508233422 27 0 0.0 0.0 0.00 0.00 0.00 99 981.0
20260508231910 27 0 0.0 0.0 0.00 0.00 0.00 99 981.0
20260508230358 26 0 0.0 0.0 0.00 0.00 0.00 99 981.0
20260508224846 27 0 0.0 0.0 0.00 0.00 0.00 99 981.0
20260508223333 27 0 0.0 0.0 0.00 0.00 0.00 99 980.0
20260508221821 26 0 0.0 0.0 0.00 0.00 0.00 99 980.0
20260508220309 27 0 0.0 0.0 0.00 0.00 0.00 99 980.0
20260508215033 27 0 0.0 0.0 0.00 0.00 0.00 99 980.0
20260508213521 27 0 0.0 0.0 0.00 0.00 0.00 99 980.0
20260508212009 27 0 0.0 0.0 0.00 0.00 0.00 99 980.0
20260508210456 26 0 0.0 0.0 0.00 0.00 0.00 99 980.0
20260508204944 26 0 0.0 0.0 0.00 0.00 0.00 99 979.0
20260508203432 26 0 0.0 0.0 0.00 0.00 0.00 99 979.0
20260508201920 26 0 0.0 0.0 0.00 0.00 0.00 99 979.0
20260508200408 26 0 0.0 0.0 0.00 0.00 0.00 99 979.0
20260508194856 26 0 0.0 0.0 0.00 0.00 0.00 99 979.0
20260508193343 26 0 0.0 0.0 0.00 0.00 0.00 99 979.0
20260508191831 26 0 0.0 0.0 0.00 0.00 0.00 99 980.0
20260508190319 26 0 0.0 0.0 0.00 0.00 0.00 99 980.0
20260508184807 26 0 0.0 0.0 0.00 0.00 0.00 99 980.0
20260508183254 27 0 0.0 0.0 0.00 0.00 0.00 99 979.0
20260508181742 27 0 0.0 0.0 0.00 0.00 0.00 99 979.0
20260508180229 27 0 0.0 0.0 0.00 0.00 0.00 99 980.0
20260508174717 27 0 0.0 0.0 0.00 0.00 0.00 99 980.0
20260508173205 27 0 0.0 0.0 0.00 0.00 0.00 99 980.0
20260508171652 26 0 0.0 0.0 0.00 0.00 0.00 99 980.0
20260508170140 26 0 0.0 0.0 0.00 0.00 0.00 99 981.0
20260508164628 26 0 0.0 0.0 0.00 0.00 0.00 99 981.0
20260508163116 26 0 0.0 0.0 0.00 0.00 0.00 99 981.0
20260508161604 27 0 0.0 0.0 0.00 0.00 0.00 99 981.0
20260508160052 27 0 0.0 0.0 0.00 0.00 0.00 99 981.0
20260508154539 27 0 0.0 0.0 0.00 0.00 0.00 99 981.0
20260508153027 27 0 0.0 0.0 0.00 0.00 0.00 99 981.0
20260508151515 27 0 0.0 0.0 0.00 0.00 0.00 99 981.0
20260508150003 27 0 0.0 0.0 0.00 0.00 0.00 99 981.0
20260508144450 26 0 0.0 0.0 0.00 0.00 0.00 99 980.0
20260508142938 27 0 0.0 0.0 0.00 0.00 0.00 99 980.0
20260508141426 26 0 0.0 0.0 0.00 0.00 0.00 99 980.0
20260508135913 27 0 0.0 0.0 0.00 0.00 0.00 97 979.0
20260508134401 27 0 0.0 0.0 0.00 0.00 0.00 95 979.0
20260508132849 28 0 0.0 0.0 0.00 0.00 0.00 96 979.0
20260508131337 27 0 0.0 0.0 0.00 0.00 0.00 94 978.0
20260508125824 28 0 0.0 0.0 0.00 0.00 0.00 97 978.0
20260508124312 28 0 0.0 0.0 0.00 0.00 0.00 91 978.0
20260508122936 28 0 0.0 0.0 0.00 0.00 0.00 95 978.0
20260508121424 27 0 0.0 0.0 0.00 0.00 0.00 92 977.0
20260508115912 26 0 0.0 0.0 0.00 0.00 0.00 92 977.0
20260508114359 26 0 0.0 0.0 0.00 0.00 0.00 81 977.0
20260508112847 31 0 0.0 0.0 0.00 0.00 0.00 57 976.0
20260508111335 32 0 0.0 0.0 0.00 0.00 0.00 54 976.0
20260508105823 36 0 0.0 0.0 0.00 0.00 0.00 48 975.0
20260508104311 36 0 0.0 0.0 0.00 0.00 0.00 50 975.0
20260508103014 36 0 0.0 0.0 0.00 0.00 0.00 48 975.0
20260508101257 36 0 0.0 0.0 0.00 0.00 0.00 47 975.0
20260508095745 37 0 0.0 0.0 0.00 0.00 0.00 45 974.0
20260508094233 37 0 0.0 0.0 0.00 0.00 0.00 45 975.0
20260508092738 38 0 0.0 0.0 0.00 0.00 0.00 44 974.0
20260508092049 37 0 0.0 0.0 0.00 0.00 0.00 43 974.0
20260508090752 38 0 0.0 0.0 0.00 0.00 0.00 40 974.0
20260508085240 39 0 0.0 0.0 0.00 0.00 0.00 39 975.0
20260508083728 38 0 0.0 0.0 0.00 0.00 0.00 40 975.0
20260508082855 39 0 0.0 0.0 0.00 0.00 0.00 38 975.0
20260508081752 39 0 0.0 0.0 0.00 0.00 0.00 39 975.0
20260508080657 39 0 0.0 0.0 0.00 0.00 0.00 39 975.0
20260508074425 38 0 0.0 0.0 0.00 0.00 0.00 40 976.0
20260508073331 40 0 0.0 0.0 0.00 0.00 0.00 37 976.0
20260508071818 40 0 0.0 0.0 0.00 0.00 0.00 37 976.0
20260508070306 40 0 0.0 0.0 0.00 0.00 0.00 39 977.0
20260508064801 40 0 0.0 0.0 0.00 0.00 0.00 38 977.0
20260508063241 40 0 0.0 0.0 0.00 0.00 0.00 38 977.0
20260508061729 40 0 0.0 0.0 0.00 0.00 0.00 39 978.0
20260508060920 38 0 0.0 0.0 0.00 0.00 0.00 40 978.0
20260508055718 40 0 0.0 0.0 0.00 0.00 0.00 39 978.0